670  
ASUS44 KOUN 271510  
RWROK  
 
WEATHER ROUNDUP FOR OKLAHOMA  
NATIONAL WEATHER SERVICE NORMAN OK  
1000 AM CDT WED JUL 27 2016  
 
NOTE: "FAIR" INDICATES FEW OR NO CLOUDS BELOW 12,000 FEET WITH NO  
SIGNIFICANT WEATHER AND/OR S TO VISIBILITY
.  
 
OKZ001>007-009>012-014-015-017-271600-  
NORTHWEST OKLAHOMA AND THE PANHANDLE  
 
CITY SKY/WX TMP DP RH WIND PRES REMARKS
 
GAGE PTSUNNY 83 71 67 NE5 30.06S  
GUYMON CLOUDY 78 68 71 S10 30.07S  

 
 
OKZ016-021>023-033>039-044-045-271600-  
SOUTHWEST OKLAHOMA  
 
CITY SKY/WX TMP DP RH WIND PRES REMARKS
 
LAWTON/REGL SUNNY 84 72 67 CALM 29.99F  
LAWTON/FT SILL SUNNY 84 74 71 S2 29.98F HX 90  
FREDERICK SUNNY 84 73 69 CALM 29.97F HX 90  
CLINTON MOSUNNY 84 70 62 S5 30.05R  
HOBART SUNNY 84 72 67 S6 30.02F  
ALTUS AFB SUNNY 83 70 64 VRB2 30.00S  

 
 
OKZ018>020-024>031-271600-  
CENTRAL OKLAHOMA  
 
CITY SKY/WX TMP DP RH WIND PRES REMARKS
 
OKLAHOMA CITY CLOUDY 80 70 71 CALM 30.00S  
OKC/WILEY POST PTSUNNY 82 71 69 SW5 30.00S  
OKC/TINKER AFB SUNNY 83 71 67 SW5 29.99S  
STILLWATER LGT RAIN 77 75 93 CALM 30.00S  
GUTHRIE PTSUNNY 81 73 76 SE3 29.99S  

 
 
OKZ008-013-054>072-271600-  
NORTHEAST OKLAHOMA  
 
CITY SKY/WX TMP DP RH WIND PRES REMARKS
 
TULSA PTSUNNY 82 75 79 VRB3 29.97S  
TULSA/JONES PTSUNNY 83 75 77 N3 29.98F HX 90  
PONCA CITY MOSUNNY 81 72 74 VRB3 29.99F  
BARTLESVILLE CLOUDY 75 73 93 CALM 30.00R  
MUSKOGEE LGT RAIN 78 75 90 E5 29.98F  

 
 
OKZ032-040>043-046>053-073>077-271600-  
SOUTH CENTRAL/SOUTHEAST OKLAHOMA  
 
CITY SKY/WX TMP DP RH WIND PRES REMARKS
 
ARDMORE/DWNTWN CLOUDY 81 72 74 CALM 29.97F  
MCALESTER PTSUNNY 79 74 84 CALM 29.99S  

 
 
 
 
CLICK HERE TO GO TO PREVIOUS BULLETINS.

The Nexlab OK Page Main Text Page